World > North America > United States > Alabama > Sterrett

Sterrett, AL Hourly Weather Conditions

Feedback E-mail the Weather

Quick WX

Sterrett, AL Weather Maps

°F °C°F °C
Sterrett Weather Map
UTC Time: 12/7/2022, 00:12
Your Time:

Sterrett, AL Regional Weather

Expires:202212070100;;422638
ASUS44 KBMX 070010
RWRAL 
             
ALABAMA REGIONAL WEATHER ROUNDUP
NATIONAL WEATHER SERVICE BIRMINGHAM AL
600 PM CST TUE DEC 06 2022

NOTE: "FAIR" INDICATES FEW OR NO CLOUDS BELOW 12,000 FEET
WITH NO SIGNIFICANT WEATHER AND/OR OBSTRUCTIONS TO VISIBILITY.

THE REMARK "TC" DENOTES TEMPERATURE IN DEGREES CELSIUS.


ALZ015-024>026-033>036-041>044-070100-
CENTRAL ALABAMA
  
CITY           SKY/WX    TMP DP  RH WIND       PRES   REMARKS
BIRMINGHAM     MOCLDY    70  63  78 S3        30.13R                  
6HR MIN TEMP:  69; 6HR MAX TEMP:  76; 6HR PCP:  0.01;                

MONTGOMERY     MOCLDY    74  64  71 SE3       30.13R                  
6HR MIN TEMP:  73; 6HR MAX TEMP:  81;                                

SHELBY CO ARPT PTCLDY    70  64  81 CALM      30.11S                  
6HR MIN TEMP:  70; 6HR MAX TEMP:  76; 6HR PCP: TRACE;                

MAXWELL AFB    MOCLDY    70  60  71 S5        30.11R                  
6HR MIN TEMP:  70; 6HR MAX TEMP:  80;                                

GREENVILLE     FAIR      70  64  81 S5        30.14R                  
6HR MIN TEMP:  70; 6HR MAX TEMP:  77;                                

SELMA          FAIR      70  68  94 SE5       30.11S                  
PRATTVILLE     FAIR      69  64  84 CALM      30.13R                  
6HR MIN TEMP:  69; 6HR MAX TEMP:  80;                                

BESSEMER       FAIR      70  65  84 S5        30.12S                  
6HR MIN TEMP:  69; 6HR MAX TEMP:  74; 6HR PCP:  0.01;                

TALLADEGA      FAIR      68  65  89 SE3       30.13S                  
6HR MIN TEMP:  68; 6HR MAX TEMP:  76; 6HR PCP:  0.03;                

PELL CITY      CLOUDY    66  64  94 CALM      30.12S                  
SYLACAUGA      MOCLDY    71  63  76 S3        30.13S                  
6HR MIN TEMP:  71; 6HR MAX TEMP:  76;                                

JASPER         LGT RAIN  66  66 100 CALM      30.09R FOG              
$$
 

SKY/WX - Weather  TMP - Temperature  DP - Dew Point  RH - Humidity
WIND - Wind Direction/Speed PRES - Barometric Pressure VSB - Visibility
WCI - Wind Chill Index E13G22 Wind - East Wind 13 mph/Gusts of 22 mph

Trending Headlines

Trending Entertainment Headlines

Sterrett Radar Loop

Use the map search tool if you want to place a location marker on the radar map...

Sterrett Quick Facts

National Two Day Weather Forecast


E-mail the Sterrett Weather Forecast

Voice your opinion or tell us about page issues...